{"data":{"norad_id":67539,"intl_designator":"2026-014H","name":"STARLINK-36573","alt_names":[],"object_type":"PAYLOAD","status":"ACTIVE","operator":null,"country":"US","launch_date":"2026-01-22","launch_site_code":"AFWTR","launch_vehicle":null,"mission":null,"orbit_class":"UNKNOWN","rcs_meters":null,"size_class":null,"mass_kg":null,"dimensions":null,"purposes":["comms"],"wikipedia_slug":null,"has_3d_model":false,"image_url":null,"decayed_at":null,"tle_current":{"epoch":"2026-05-25T02:24:36.275904Z","epoch_age_seconds":62515,"freshness":"FRESH","line1":"1 67539U 26014H   26145.10041986  .00023216  00000+0  71891-3 0  9992","line2":"2 67539  97.2865  32.1483 0001175  44.3581 315.7756 15.33458988 20492","mean_motion":15.33458988,"eccentricity":0.0001175,"inclination_deg":97.2865,"raan_deg":32.1483,"arg_perigee_deg":44.3581,"mean_anomaly_deg":315.7756,"bstar":0.00071891,"rev_number":2049,"period_min":93.905348057473,"perigee_km":464.69742881752,"apogee_km":466.30568387826,"semimajor_km":6843.6385563479,"source":"CELESTRAK","updated_at":"2026-05-25T13:38:21.608008Z"}}}